Regional Weather Roundup
Issued by NWS Wakefield, VA

Home | Current Version | Previous Version | Graphics & Text | Print | Product List | Glossary On
Versions: 1 2 3 4 5 6 7 8 9 10 11 12 13 14 15 16 17 18 19 20 21 22 23 24 25 26 27 28 29 30 31 32 33 34 35 36 37 38 39 40 41 42 43 44 45 46 47 48 49 50
000
ASUS41 KAKQ 021410
RWRAKQ

REGIONAL WEATHER ROUNDUP
NATIONAL WEATHER SERVICE WAKEFIELD VA
1000 AM EDT TUE SEP 02 2014

Note: "fair" indicates few or no clouds below 12,000 feet with no
significant weather and/or obstructions to visibility. * = Denotes
station may not report precipitation (e.g., rain,snow,etc.),
thunder or fog.

VAZ042-051-052>054-056-021500-
NORTHERN VIRGINIA

CITY           SKY/WX    TMP DP  RH WIND       PRES   REMARKS
WASH NATIONAL  MOSUNNY   85  72  65 S6        29.98S
DULLES         MOSUNNY   83  71  67 SW7       29.99S
FORT BELVOIR   SUNNY     84  71  65 VRB2      29.99S
QUANTICO       MOSUNNY   82  73  74 SW5       29.99S
FREDERICKSBRG* SUNNY     85  71  62 CALM      29.99S
STAFFORD*      SUNNY     84  72  68 CALM      30.04R
WARRENTON      SUNNY     86  76  72 SW5       30.00R HX  96
CULPEPER*      SUNNY    N/A N/A N/A SW5       30.00S
MANASSAS*      SUNNY     82  73  74 S6        29.99S
LEESBURG*      SUNNY     84  73  70 SW5       30.00S
WINCHESTER     SUNNY     82  68  61 SW9       30.00S
$$

VAZ048-049-060>072-079>083-021500-
CENTRAL AND SOUTH CENTRAL VIRGINIA...AND NORTH CENTRAL NORTH CAROLINA

CITY           SKY/WX    TMP DP  RH WIND       PRES   REMARKS
RICHMOND       MOSUNNY   86  70  58 SW8       30.02S
CHESTERFIELD*  SUNNY     84  64  51 W6        30.04S
PETERSBURG*    SUNNY     84  70  61 SW6       30.03S
HANOVER        SUNNY     87  70  56 VRB6      30.03R
TAPPAHANNOCK*  SUNNY     85  68  56 SW3       30.01S
CHARLOTTSVILLE SUNNY     85  69  58 VRB6      30.02R
ORANGE*        SUNNY     84  70  61 S3        30.02S
LOUISA*        SUNNY     82  72  69 SW3       30.01S
FARMVILLE*     SUNNY     84  70  61 SW6       30.02S
SOUTH HILL*    SUNNY     84  75  74 W7        30.10S
ROANOKE RAPIDS SUNNY     82  72  69 SW8       30.05S
RALEIGH        MOSUNNY   83  71  67 SW3       30.07F
$$

VAZ088>098-021500-
SOUTHEAST VIRGINIA

CITY           SKY/WX    TMP DP  RH WIND       PRES   REMARKS
NORFOLK        SUNNY     87  72  60 SW9       30.02F
VIRGINIA BEACH MOSUNNY   85  74  69 SW12      30.01F
NORFOLK NAVAL  MOSUNNY   86  74  67 SW8       30.03F
WEST POINT*    NOT AVBL
NEWPORT NEWS   SUNNY     88  74  63 W8        30.02F HX  96
LANGLEY AFB    SUNNY     86  74  67 SW10      30.01S
FORT EUSTIS    SUNNY     84  72  68 S6        30.00F
WILLIAMSBURG*  SUNNY     88  75  66 W3        30.02F HX  97
FRANKLIN*      SUNNY     84  73  70 SW5       30.03F
WAKEFIELD      SUNNY     86  73  65 SW7       30.03S
$$

VAZ020-022-025-037-045-021500-
WESTERN AND SOUTHWEST VIRGINIA

CITY           SKY/WX    TMP DP  RH WIND       PRES   REMARKS
STAUNTON*      SUNNY     84  66  54 SW6       30.07S
HOT SPRINGS VA MOSUNNY   69  64  84 W15       30.22R
LYNCHBURG      SUNNY     81  70  69 VRB5      30.08R
DANVILLE       SUNNY     81  71  71 SW6       30.07S
MARTINSVILLE   SUNNY     83  71  66 CALM      30.11S
ROANOKE        MOSUNNY   79  67  66 W9        30.10S
BLACKSBURG     SUNNY     79  72  78 W3        30.16F
DUBLIN*        SUNNY     78  70  75 S5        30.16F
MARION*        SUNNY    N/A N/A N/A W12       30.20F
HILLSVILLE*    SUNNY     74  66  74 W3        30.19S
RICHLANDS*     MOSUNNY   76  70  79 SW6       30.18S
WISE*          MOSUNNY   73  64  73 SW14      30.19S
ABINGDON*      MOSUNNY   77  68  73 SW5       30.16F
$$

MDZ021>025-VAZ099-100-021500-
SOUTHERN MARYLAND AND THE DELMARVA PENINSULA

CITY           SKY/WX    TMP DP  RH WIND       PRES   REMARKS
PATUXENT RIVER MOSUNNY   86  70  58 W8        29.98S
BAY BRIDGE APT   N/A     82  70  65 W3        29.98R
LEONARDTOWN    SUNNY     84  68  58 SW6       30.00F
DOVER          SUNNY     86  73  65 SW9       29.96S
GEORGETOWN     SUNNY     87  71  58 S9        29.99R
EASTON         SUNNY     88  73  62 W9        30.02R HX  96
CAMBRIDGE      SUNNY     84  70  61 S5        29.97F
SALISBURY      SUNNY     89  73  59 SW6       29.99R HX  97
OCEAN CITY     SUNNY     86  75  69 VRB3      29.99S HX  95
WALLOPS ISLAND NOT AVBL
ACCOMACK*      SUNNY     86  72  62 W7        30.01S
$$

NCZ012>017-030>032-021500-
EASTERN NORTH CAROLINA

CITY           SKY/WX    TMP DP  RH WIND       PRES   REMARKS
ELIZABETH CITY SUNNY     84  76  76 W9        30.05S
AHOSKIE*       SUNNY     83  74  72 CALM      30.05S
EDENTON*       SUNNY     83  75  76 SW6       30.06R
CURRITUCK*     SUNNY     85  73  67 SW7       30.05S
KILL DEVIL HLS SUNNY     84  74  73 W8        30.05S
MANTEO         SUNNY     84  74  72 W7        30.06S
CAPE HATTERAS  SUNNY     83  77  82 W9        30.08S
GOLDSBORO      SUNNY     85  79  83 VRB6      30.06S HX  97
WASHINGTON     SUNNY     84  75  74 W8        30.07S
GREENVILLE     SUNNY     84  75  74 W6        30.08S
NEW BERN       SUNNY     87  75  67 W7        30.09S HX  96
WILMINGTON     SUNNY     85  76  74 SW8       30.09F
$$

VAZ048-021500-
ELSEWHERE

CITY           SKY/WX    TMP DP  RH WIND       PRES   REMARKS
HARRISBURG PA  PTSUNNY   82  72  71 CALM      29.96R
BALTIMORE      MOSUNNY   84  71  65 W5        29.97S
ANNAPOLIS      SUNNY     85  70  60 SW8       29.97S
ANDREWS AFB    SUNNY     86  71  61 SW8       29.99S
WILMINGTON DE  SUNNY     85  72  65 W7        29.97S
PHILADELPHIA   MOSUNNY   84  71  65 SW8       29.96S
WILDWOOD NJ*   SUNNY     84  70  61 W8        29.98S
ATLANTIC CITY  SUNNY     85  72  65 W9        29.96R
HENDERSON NC   SUNNY     82  69  64 SW7       30.07S
GREENSBORO     MOSUNNY   84  70  62 W8        30.09S
ROCKY MOUNT    SUNNY     84  73  69 SW6       30.07S
FAYETTEVILLE   SUNNY     86  73  65 SW5       30.07F
CHARLOTTE      MOSUNNY   85  70  60 CALM      30.09S
$$

VAZ100-021500-
MARINE

STATION/POSITION TIME  TEMP    WIND        PRES    WAVE   SWELL
                       AIR SEA DIR/SP/G            HT/PER HT/PER
                 (UTC) (F)     (DEG/KT/KT) (MB)    (FT/S) (FT/S)
44066 TX TWR #4  1400   75 74  230/  8/  8 1014.8R   3/ 5   3/ 5
CAPE MAY NJ      1400   80 80  220/  6/  7 1014.5F
LEWES DE         1400   86 77  270/ 11/ 15 1014.7S
15NM E FENWICK I 1400   77 76              1015.1S   3/ 5
OCEAN-CITY-INLET 1400   83 79  240/  7/  9 1015.2R
WACHAPREAGUE VA  1400   85 81  240/  6/ 10 1016.1S
THOMAS POINT MD  1400   81 79  270/  4/  5 1016.1R
GOOSES REEF MD   1400   81     260/  6/  8 1015.6R
COVE POINT MD    1400   84     270/  9/ 12 1015.1R
SOLOMONS ISLAND  1400      80                N/A
BISHOPS HEAD MD  1400   80 80  240/  8/  9 1015.2F
PINEY POINT MD   1400             CALM       N/A
POTOMAC MD       1400   80     270/  6/  8 1015.0F
CAMBRIDGE MD     1400   84 80  220/  7/  9 1014.9S
LEWISETTA VA     1400   84 81  230/  4/  5 1015.1F
RAPPAHANNOCK LGT 1400          190/  9/ 10 1016.6F
STINGRAY PT      1400   82     250/  8/ 10   N/A
YORK RVR RNG VA  1400   82     280/  9/  9 1015.7S
YORKTOWN VA      1400   82 80  240/  9/ 10 1015.9F
JAMESTOWN VA     1400   80     260/  4/  6   N/A
DOMINION TERM VA 1400   83     240/  5/  6 1016.6F
KIPTOPEKE VA     1400      83  250/  6/  8   N/A
CHES BAY BRIDGE  1400   81 79  220/ 11/ 12 1015.9F
CAPE HENRY VA    1400   83     230/  9/ 11 1015.3S
CHESAPEAKE LGHT  1300   79     240/ 13/ 15 1017.2F
WILLOUBY STN VA  1400   80     230/ 10/ 10 1015.3F
S CRANEY ISL VA  1400          200/  5/  7 1016.3F
CAPE HENRY BUOY  1400      79                N/A     3/ 9
1ST LANDING BUOY 1400   82     240/  8/ 12 1016.2S
CAPE CHARLES BUO 1400      78                N/A     2/ 9   2/ 9
OFFSHORE WE BUOY 1400      78                N/A     3/ 8   2/ 8
64NM E OF VA BCH 1400   78 77  230/ 12/ 14 1016.8S   3/ 9   2/ 9
DUCK PIER NC     1400   80 75  240/ 11/ 12 1017.0R
44056 DUCK FRF   1400                        N/A     2/12   2/12
OREGON INLET NC  1400   82 84  230/  9/ 10 1018.0R
HATTERAS NC      1400   83 83  260/  9/ 13 1019.1S
DIAMOND SHLS NC  1400   81     240/ 12/ 14 1018.8R   3/ 5   2/11
CAPE LOOKOUT NC  1300   83     250/ 10/ 12 1018.9R
$$


USA.gov is the U.S. government's official web portal to all federal, state and local government web resources and services.